Wetbulb
76.43 75.23 75.42 75.95 74.49 74.26 74.37 75.08 76.94 76.91 77.26 77.14 76.77 76.33 75.66 74.12 73.25 72.69 71.70 71.22 70.83 69.75
75.92 75.78 75.34 76.40 76.49 74.99 76.59 75.47 76.31 76.96 76.88 77.16 76.83 76.27 75.54 73.76 72.94 71.91 71.79 71.34 71.08 69.88
75.45 75.83 76.07 76.54 76.07 76.27 76.56 76.34 76.03 76.31 76.64 76.88 76.73 76.16 75.45 74.46 73.73 71.97 70.94 70.37 70.70 70.27
75.30 75.46 75.80 75.85 76.28 76.41 76.64 76.57 76.32 76.39 76.24 76.32 76.23 76.00 75.18 74.86 73.99 71.82 71.60 70.78 70.41 70.43
75.65 75.51 75.38 75.52 76.12 76.68 76.51 76.65 77.33 77.18 76.27 76.34 76.39 76.02 74.84 74.35 73.75 72.26 71.39 71.10 70.27 69.62
75.31 75.46 75.26 75.58 76.13 76.54 76.62 76.53 75.90 76.90 76.82 76.01 75.83 75.53 75.22 75.01 74.33 73.05 72.54 71.79 70.40 69.69
74.91 75.28 75.53 76.02 76.08 76.34 76.65 76.40 76.65 76.97 76.68 76.42 75.71 75.63 75.13 74.73 74.65 73.80 72.90 72.65 71.46 70.49
75.24 75.83 75.95 75.83 75.99 76.31 76.48 76.23 76.57 76.61 76.67 76.67 75.73 74.90 75.28 74.67 74.33 74.06 72.98 72.63 71.61 70.86
75.06 75.65 75.57 75.87 75.98 76.21 76.09 76.27 76.29 76.02 76.31 76.14 75.04 69.07 67.66 72.94 74.55 73.86 73.68 72.71 71.96 71.26
74.94 74.99 75.28 75.71 75.89 75.43 75.55 75.93 75.78 75.90 76.11 75.87 76.26 65.39 65.28 67.35 74.67 74.04 73.94 73.55 72.55 71.03
74.70 74.51 75.17 75.07 75.23 75.56 75.79 75.45 75.54 75.46 75.84 75.92 75.77 64.02 63.30 65.75 73.74 74.51 74.48 73.61 73.12 71.96
74.62 74.54 74.98 74.68 74.71 75.30 75.45 75.48 75.43 75.90 75.78 75.39 75.85 62.90 61.34 65.06 72.68 73.98 73.84 73.51 73.15 72.47
75.68 75.33 74.98 75.38 75.58 75.88 75.81 75.37 75.23 75.62 76.02 72.31 75.53 62.40 59.79 64.26 73.35 73.20 72.21 72.80 72.51 63.87
75.78 75.50 75.95 76.17 76.14 75.99 75.81 75.29 75.35 75.19 75.46 75.77 74.17 74.24 58.63 58.83 73.84 73.01 70.43 70.63 70.01 71.63
MSLP
1012.11 1012.52 1012.86 1013.26 1013.49 1014.09 1014.50 1014.84 1015.32 1015.85 1016.14 1016.61 1017.14 1017.65 1018.18 1018.62 1019.02 1019.45 1019.84 1020.12 1020.33 1020.27
1011.15 1011.64 1011.82 1012.30 1012.91 1013.37 1013.89 1014.33 1014.86 1015.29 1015.77 1016.09 1016.50 1016.98 1017.54 1018.09 1018.67 1019.08 1019.46 1019.69 1020.01 1020.05
1009.90 1010.58 1011.10 1011.80 1012.16 1012.58 1013.04 1013.71 1014.29 1014.86 1015.21 1015.59 1016.02 1016.54 1017.10 1017.57 1018.14 1018.56 1018.82 1019.04 1019.42 1019.64
1008.66 1009.41 1010.18 1010.84 1011.43 1011.96 1012.46 1013.00 1013.60 1014.16 1014.55 1014.90 1015.36 1015.97 1016.48 1016.85 1017.32 1017.91 1018.12 1018.35 1018.68 1018.96
1007.39 1008.21 1008.86 1009.41 1010.01 1010.68 1011.30 1012.02 1012.61 1013.26 1013.67 1014.14 1014.72 1015.24 1015.67 1016.02 1016.42 1016.99 1017.23 1017.29 1017.93 1018.24
1006.37 1006.90 1007.37 1007.99 1008.74 1009.67 1010.32 1010.88 1011.57 1012.16 1012.62 1013.26 1013.85 1014.33 1014.81 1015.12 1015.54 1015.86 1016.14 1016.52 1016.82 1016.44
1004.65 1005.03 1005.81 1006.78 1007.62 1008.36 1009.05 1009.79 1010.47 1011.01 1011.61 1012.24 1012.91 1013.38 1013.75 1014.22 1014.60 1014.92 1015.24 1015.56 1016.03 1016.70
1003.00 1003.94 1005.00 1005.76 1006.24 1006.97 1007.92 1008.45 1009.01 1009.75 1010.45 1011.06 1011.69 1012.18 1012.69 1013.12 1013.52 1014.06 1014.52 1014.87 1015.47 1015.87
1002.46 1002.98 1003.56 1004.68 1005.43 1006.28 1006.84 1007.49 1008.05 1008.47 1009.05 1009.69 1010.20 1010.71 1011.52 1011.88 1012.46 1013.05 1013.46 1013.90 1014.47 1014.99
1001.77 1002.30 1002.69 1003.45 1004.25 1004.63 1005.29 1006.16 1006.66 1007.28 1007.86 1008.29 1008.86 1009.46 1010.19 1010.88 1011.23 1011.81 1012.35 1012.85 1013.43 1014.14
1000.51 1001.14 1002.04 1002.67 1003.01 1003.69 1004.35 1004.82 1005.43 1005.96 1006.62 1007.23 1007.56 1008.21 1008.96 1009.92 1010.60 1011.05 1011.43 1011.86 1012.44 1013.08
998.87 999.94 1001.07 1001.77 1001.90 1002.54 1003.36 1004.00 1004.36 1004.79 1005.30 1005.74 1006.08 1006.93 1007.94 1009.18 1009.77 1009.95 1010.38 1011.04 1011.61 1012.33
999.07 999.51 999.86 1000.42 1001.45 1002.01 1002.12 1002.30 1003.17 1003.58 1003.82 1004.55 1004.93 1005.62 1006.63 1007.71 1008.08 1008.84 1009.53 1010.35 1011.00 1011.64
997.66 998.21 998.75 999.49 1000.05 1000.80 1001.59 1002.11 1002.15 1002.11 1002.58 1002.87 1003.77 1004.39 1005.77 1006.80 1007.20 1007.56 1008.76 1009.50 1010.17 1010.77
Wind_Speed
19 13 14 14 12 11 11 10 12 12 11 11 10 9 8 7 7 7 6 7 6 5
18 18 16 16 14 12 11 10 12 13 12 12 11 12 10 7 9 8 8 7 7 7
19 18 17 14 15 15 13 13 12 13 13 12 12 12 12 9 9 10 8 7 9 9
19 20 18 16 16 15 14 14 14 14 14 14 13 13 13 12 11 12 11 11 11 11
20 19 20 19 19 18 17 16 15 15 15 14 14 14 15 15 13 14 14 14 12 13
20 20 21 21 20 18 17 17 18 16 16 16 15 15 16 16 16 16 16 15 15 15
23 23 21 20 20 19 18 18 18 17 17 17 17 17 16 17 17 17 16 16 15 12
22 20 19 20 21 20 19 18 19 18 17 17 17 15 17 17 18 17 17 16 14 15
19 20 21 20 19 19 19 19 19 19 19 19 15 17 19 18 16 17 17 16 15 14
17 19 20 20 20 21 21 19 20 19 19 20 19 20 22 23 16 16 16 16 15 13
19 20 19 19 21 20 18 20 19 19 19 18 18 20 23 25 19 15 16 17 17 16
21 20 19 20 21 19 18 18 18 16 19 21 20 22 22 22 18 17 17 15 16 15
15 18 20 19 18 15 16 18 16 18 19 21 20 19 22 23 14 15 12 12 15 14
17 19 18 17 17 17 17 14 17 19 18 21 22 19 23 26 16 13 11 12 11 9
Wind_Direction
210 211 214 212 209 213 219 215 206 205 206 204 203 203 196 194 195 195 205 203 220 223
208 212 212 212 207 207 213 218 205 205 204 206 204 200 194 206 197 194 200 204 205 223
208 211 216 210 208 209 205 210 205 210 208 205 203 200 195 202 199 197 197 210 203 211
204 206 207 208 209 210 204 201 204 207 207 208 202 199 198 207 200 204 203 207 208 209
202 203 204 206 206 202 201 201 202 205 206 208 204 200 203 207 204 208 210 211 207 215
205 203 206 206 205 203 201 200 202 204 205 207 206 203 207 211 209 211 215 213 208 214
202 204 204 203 204 203 200 197 201 201 203 206 207 208 207 210 214 216 218 218 217 204
204 203 202 202 202 201 200 201 198 197 201 202 208 210 210 209 213 214 220 221 212 212
201 200 201 201 202 200 203 203 201 201 197 200 207 201 198 204 210 211 218 219 215 216
200 203 201 199 198 201 201 199 202 202 200 204 206 187 194 198 207 209 216 217 214 212
200 203 202 200 203 203 201 201 201 203 203 206 209 190 195 194 211 212 218 217 214 213
197 199 199 205 205 200 200 202 206 204 202 206 212 194 191 185 208 216 217 216 213 213
203 203 204 207 211 210 205 202 201 206 205 209 217 190 187 187 207 212 209 210 212 201
199 204 205 201 200 202 208 215 210 204 204 206 210 210 185 186 204 205 196 199 206 193